Location: Port-Aux-Quilles Astronomical Observatory
(47.9769°N, 69.9642°W)
Time: 01:26:35
(UTC-05:00)

OTV 5 (USA 277) - Pass Details

Date: 30 October 2019
Orbit: 310 x 324 km, 54.5° (Epoch: 17 October)

Event Time Altitude Azimuth Distance (km) Brightness Sun altitude
Rises 18:03:28 0° 198° (SSW) 2,047 ? -7.0°
Reaches altitude 10° 18:05:52 10° 175° (S) 1,224 ? -7.4°
Maximum altitude 18:07:39 16° 134° (SE) 950 ? -7.7°
Enters shadow 18:09:20 11° 95° (E) 1,204 ? -8.0°
